• In Österreich
  • Länderverzeichnis
  • Für 7 Tage
  • Wassertemperatur
  • Satellitenkarten
  • Wetterkarte
  • News
  • Widgets
  • user-avatar
    Anmelden

    Stündliche Wetter Pezlevo

    Heute, 19 Juli, Donnerstag

    Zeit Temperatur Niederschläge Wind Luftdruck Luftfeuchtigkeit
    00:00 +18°C° 0 mm 4 m/S 743 mmHg 93%
    01:00 +18°C° 0 mm 4 m/S 743 mmHg 93%
    02:00 +18°C° 0 mm 3 m/S 743 mmHg 94%
    03:00 +18°C° 0 mm 3 m/S 743 mmHg 93%
    04:00 +18°C° 0 mm 4 m/S 743 mmHg 92%
    05:00 +18°C° 0 mm 4 m/S 743 mmHg 91%
    06:00 +20°C° 0 mm 4 m/S 743 mmHg 85%
    07:00 +21°C° 0 mm 5 m/S 743 mmHg 80%
    08:00 +23°C° 0 mm 5 m/S 743 mmHg 73%
    09:00 +23°C° 0,4 mm 5 m/S 743 mmHg 74%
    10:00 +23°C° 0,4 mm 5 m/S 743 mmHg 75%
    11:00 +25°C° 0,4 mm 5 m/S 743 mmHg 76%
    12:00 +25°C° 0,7 mm 5 m/S 743 mmHg 79%
    13:00 +23°C° 0,7 mm 5 m/S 743 mmHg 82%
    14:00 +23°C° 0,7 mm 5 m/S 743 mmHg 85%
    15:00 +23°C° 0,3 mm 5 m/S 742 mmHg 85%
    16:00 +23°C° 0,3 mm 5 m/S 742 mmHg 85%
    17:00 +23°C° 0,3 mm 5 m/S 742 mmHg 85%
    18:00 +22°C° 0,1 mm 4 m/S 742 mmHg 87%
    19:00 +21°C° 0,1 mm 4 m/S 742 mmHg 90%
    20:00 +20°C° 0,1 mm 4 m/S 742 mmHg 92%
    21:00 +20°C° 0 mm 4 m/S 742 mmHg 93%
    22:00 +20°C° 0 mm 4 m/S 742 mmHg 95%
    23:00 +19°C° 0 mm 4 m/S 742 mmHg 96%

    Morgen, 20 Juli, Freitag

    Zeit Temperatur Niederschläge Wind Luftdruck Luftfeuchtigkeit
    00:00 +19°C° 0 mm 4 m/S 742 mmHg 96%
    01:00 +19°C° 0 mm 4 m/S 742 mmHg 95%
    02:00 +19°C° 0 mm 4 m/S 742 mmHg 95%
    03:00 +19°C° 0 mm 4 m/S 742 mmHg 95%
    04:00 +19°C° 0 mm 4 m/S 742 mmHg 95%
    05:00 +19°C° 0 mm 4 m/S 741 mmHg 95%
    06:00 +20°C° 0 mm 4 m/S 742 mmHg 94%
    07:00 +20°C° 0 mm 4 m/S 742 mmHg 93%
    08:00 +20°C° 0 mm 4 m/S 742 mmHg 92%
    09:00 +20°C° 0,1 mm 4 m/S 742 mmHg 91%
    10:00 +20°C° 0,1 mm 4 m/S 742 mmHg 91%
    11:00 +20°C° 0,1 mm 4 m/S 742 mmHg 91%
    12:00 +21°C° 0,1 mm 4 m/S 742 mmHg 90%
    13:00 +21°C° 0,1 mm 4 m/S 742 mmHg 90%
    14:00 +21°C° 0,1 mm 4 m/S 742 mmHg 90%
    15:00 +22°C° 0,3 mm 4 m/S 742 mmHg 89%
    16:00 +22°C° 0,3 mm 4 m/S 742 mmHg 88%
    17:00 +23°C° 0,3 mm 4 m/S 741 mmHg 87%
    18:00 +22°C° 0,2 mm 4 m/S 741 mmHg 89%
    19:00 +22°C° 0,2 mm 4 m/S 741 mmHg 90%
    20:00 +21°C° 0,2 mm 3 m/S 741 mmHg 92%
    21:00 +21°C° 0,4 mm 3 m/S 741 mmHg 93%
    22:00 +20°C° 0,4 mm 3 m/S 741 mmHg 93%
    23:00 +20°C° 0,4 mm 3 m/S 741 mmHg 94%

    übermorgen, 21 Juli, Samstag

    Zeit Temperatur Niederschläge Wind Luftdruck Luftfeuchtigkeit
    00:00 +20°C° 0,2 mm 3 m/S 741 mmHg 95%
    01:00 +20°C° 0,2 mm 4 m/S 741 mmHg 96%
    02:00 +20°C° 0,2 mm 4 m/S 741 mmHg 97%
    03:00 +20°C° 0,2 mm 4 m/S 741 mmHg 97%
    04:00 +20°C° 0,2 mm 4 m/S 741 mmHg 96%
    05:00 +20°C° 0,2 mm 4 m/S 741 mmHg 96%
    06:00 +20°C° 0,1 mm 4 m/S 742 mmHg 96%
    07:00 +21°C° 0,1 mm 4 m/S 742 mmHg 95%
    08:00 +21°C° 0,1 mm 3 m/S 742 mmHg 94%
    09:00 +22°C° 0,3 mm 3 m/S 742 mmHg 93%
    10:00 +22°C° 0,3 mm 3 m/S 742 mmHg 91%
    11:00 +24°C° 0,3 mm 3 m/S 742 mmHg 89%
    12:00 +23°C° 0,2 mm 4 m/S 742 mmHg 87%
    13:00 +25°C° 0,2 mm 4 m/S 742 mmHg 85%
    14:00 +26°C° 0,2 mm 4 m/S 742 mmHg 83%
    15:00 +26°C° 0,3 mm 4 m/S 742 mmHg 82%
    16:00 +26°C° 0,3 mm 4 m/S 742 mmHg 81%
    17:00 +27°C° 0,3 mm 3 m/S 742 mmHg 80%
    18:00 +26°C° 0,3 mm 3 m/S 742 mmHg 83%
    19:00 +25°C° 0,3 mm 3 m/S 742 mmHg 86%
    20:00 +22°C° 0,3 mm 3 m/S 742 mmHg 90%
    21:00 +22°C° 0 mm 3 m/S 742 mmHg 91%
    22:00 +21°C° 0 mm 3 m/S 742 mmHg 93%
    23:00 +21°C° 0 mm 3 m/S 743 mmHg 95%

    22 Juli, Sonntag

    Zeit Temperatur Niederschläge Wind Luftdruck Luftfeuchtigkeit
    00:00 +20°C° 0 mm 3 m/S 743 mmHg 96%
    01:00 +20°C° 0 mm 3 m/S 743 mmHg 97%
    02:00 +20°C° 0 mm 4 m/S 743 mmHg 97%
    03:00 +20°C° 0,2 mm 3 m/S 743 mmHg 97%
    04:00 +20°C° 0,2 mm 3 m/S 743 mmHg 97%
    05:00 +20°C° 0,2 mm 3 m/S 743 mmHg 97%
    06:00 +20°C° 0,1 mm 3 m/S 743 mmHg 96%
    07:00 +20°C° 0,1 mm 3 m/S 743 mmHg 95%
    08:00 +20°C° 0,1 mm 3 m/S 743 mmHg 94%
    09:00 +20°C° 0 mm 3 m/S 743 mmHg 93%
    10:00 +21°C° 0 mm 3 m/S 743 mmHg 91%
    11:00 +21°C° 0 mm 4 m/S 743 mmHg 90%
    12:00 +21°C° 0 mm 4 m/S 743 mmHg 88%
    13:00 +22°C° 0 mm 4 m/S 743 mmHg 87%
    14:00 +22°C° 0 mm 3 m/S 743 mmHg 86%
    15:00 +24°C° 0,1 mm 3 m/S 743 mmHg 85%
    16:00 +25°C° 0,1 mm 3 m/S 743 mmHg 83%
    17:00 +25°C° 0,1 mm 3 m/S 743 mmHg 82%
    18:00 +24°C° 0,1 mm 3 m/S 743 mmHg 85%
    19:00 +24°C° 0,1 mm 2 m/S 743 mmHg 89%
    20:00 +23°C° 0,1 mm 2 m/S 743 mmHg 93%
    21:00 +21°C° 0,1 mm 3 m/S 743 mmHg 94%
    22:00 +21°C° 0,1 mm 3 m/S 743 mmHg 95%
    23:00 +20°C° 0,1 mm 4 m/S 743 mmHg 96%

    23 Juli, Montag

    Zeit Temperatur Niederschläge Wind Luftdruck Luftfeuchtigkeit
    00:00 +20°C° 0 mm 3 m/S 743 mmHg 96%
    01:00 +20°C° 0 mm 3 m/S 743 mmHg 96%
    02:00 +19°C° 0 mm 3 m/S 743 mmHg 97%
    03:00 +20°C° 0,1 mm 3 m/S 743 mmHg 96%
    04:00 +20°C° 0,1 mm 3 m/S 743 mmHg 96%
    05:00 +20°C° 0,1 mm 3 m/S 743 mmHg 95%
    06:00 +20°C° 0,1 mm 3 m/S 743 mmHg 95%
    07:00 +21°C° 0,1 mm 4 m/S 743 mmHg 94%
    08:00 +21°C° 0,1 mm 4 m/S 743 mmHg 93%
    09:00 +21°C° 0 mm 4 m/S 743 mmHg 92%
    10:00 +22°C° 0 mm 4 m/S 743 mmHg 91%
    11:00 +22°C° 0 mm 4 m/S 743 mmHg 89%
    12:00 +22°C° 0,1 mm 4 m/S 743 mmHg 89%
    13:00 +22°C° 0,1 mm 4 m/S 743 mmHg 88%
    14:00 +24°C° 0,1 mm 3 m/S 743 mmHg 87%
    15:00 +24°C° 0,2 mm 3 m/S 743 mmHg 86%
    16:00 +24°C° 0,2 mm 3 m/S 743 mmHg 85%
    17:00 +25°C° 0,2 mm 3 m/S 743 mmHg 84%
    18:00 +24°C° 0,6 mm 3 m/S 743 mmHg 87%
    19:00 +22°C° 0,6 mm 3 m/S 743 mmHg 90%
    20:00 +21°C° 0,6 mm 3 m/S 743 mmHg 93%
    21:00 +21°C° 0,1 mm 3 m/S 743 mmHg 94%
    22:00 +21°C° 0,1 mm 3 m/S 743 mmHg 95%
    23:00 +20°C° 0,1 mm 3 m/S 743 mmHg 96%

    24 Juli, Dienstag

    Zeit Temperatur Niederschläge Wind Luftdruck Luftfeuchtigkeit
    00:00 +20°C° 0,2 mm 3 m/S 743 mmHg 97%
    01:00 +20°C° 0,2 mm 3 m/S 743 mmHg 97%
    02:00 +19°C° 0,2 mm 3 m/S 743 mmHg 98%
    03:00 +20°C° 0 mm 4 m/S 744 mmHg 97%
    04:00 +20°C° 0 mm 4 m/S 744 mmHg 97%
    05:00 +20°C° 0 mm 4 m/S 744 mmHg 96%
    06:00 +20°C° 0,1 mm 4 m/S 744 mmHg 95%
    07:00 +20°C° 0,1 mm 4 m/S 744 mmHg 95%
    08:00 +20°C° 0,1 mm 4 m/S 745 mmHg 94%
    09:00 +21°C° 0 mm 4 m/S 745 mmHg 92%
    10:00 +21°C° 0 mm 4 m/S 745 mmHg 91%
    11:00 +22°C° 0 mm 4 m/S 745 mmHg 89%
    12:00 +22°C° 0,1 mm 4 m/S 745 mmHg 86%
    13:00 +23°C° 0,1 mm 4 m/S 745 mmHg 83%
    14:00 +25°C° 0,1 mm 4 m/S 745 mmHg 80%
    15:00 +25°C° 0,1 mm 4 m/S 745 mmHg 80%
    16:00 +25°C° 0,1 mm 4 m/S 745 mmHg 80%
    17:00 +25°C° 0,1 mm 4 m/S 745 mmHg 80%
    18:00 +24°C° 0 mm 3 m/S 745 mmHg 84%
    19:00 +22°C° 0 mm 3 m/S 745 mmHg 88%
    20:00 +21°C° 0 mm 2 m/S 745 mmHg 92%
    21:00 +21°C° 0,1 mm 2 m/S 745 mmHg 94%
    22:00 +20°C° 0,1 mm 2 m/S 745 mmHg 96%
    23:00 +20°C° 0,1 mm 2 m/S 746 mmHg 97%
    Mehr zeigen